Weather Roundup
Issued by NWS

Home | Current Version | Previous Version | Graphics & Text | Print | Product List | Glossary Off
Versions: 1 2 3 4 5 6 7 8 9 10 11 12 13 14 15 16 17 18 19 20 21 22 23 24 25 26 27 28 29 30 31 32 33 34 35 36 37 38 39 40 41 42 43 44 45 46 47 48 49 50

000
NZUS93 KARX 190759
HRRWXR

CURRENT HOURLY OBSERVATIONS ACROSS
MUCH OF THE UPPER MISSISSIPPI VALLEY
NATIONAL WEATHER SERVICE LA CROSSE WI
300 AM CDT SAT APR 19 2014


...SOUTHEAST MINNESOTA...


CITY           SKY/WX    TMP DP  RH WIND       PRES   REMARKS
ROCHESTER      PTCLDY    41  29  62 SE17      30.20F
ROCHESTER/MAYO FAIR      43  27  52 SE14      30.21S
WINONA         MOCLDY    43  32  65 SE8       30.27R
AUSTIN         PTCLDY    45  30  57 SE13      30.17F
ALBERT LEA     PTCLDY    45  34  65 SE15G21   30.14F
DODGE CENTER   PTCLDY    45  30  57 SE17      30.18F
PRESTON        PTCLDY    42  31  64 SE12G18   30.24R
OWATONNA       PTCLDY    43  30  61 SE20      30.14F
FARIBAULT      PTCLDY    46  28  49 SE18G24   30.15F
$$

...ELSEWHERE IN MINNESOTA...


CITY           SKY/WX    TMP DP  RH WIND       PRES   REMARKS
MINNEAPOLIS    PTCLDY    45  28  51 SE18G30   30.15F
INTNL FALLS    FLURRIES  32  27  81 SE16G22   30.14F WCI  21
DULUTH         CLOUDY    33  24  69 E18       30.24S WCI  22
RED WING       PTCLDY    45  27  49 SE14      30.21F
REDWOOD FALLS  MOCLDY    47  33  58 SE16G26   30.04R
MANKATO        PTCLDY    46  30  53 SE21      30.10F
WORTHINGTON    MOCLDY    48  34  57 S18G24    30.00F
FAIRMONT       PTCLDY    46  28  49 SE22G28   30.07F
$$

...SOUTHWEST WISCONSIN...


CITY           SKY/WX    TMP DP  RH WIND       PRES   REMARKS
LA CROSSE      MOCLDY    43  31  62 SE9       30.30R
PRAIRIE DU CHI PTCLDY    40  30  67 E10G17    30.32R WCI  34
BOSCOBEL       PTCLDY    39  27  62 E8        30.35R WCI  33
LONE ROCK      NOT AVBL
PLATTEVILLE    NOT AVBL
FORT MC COY    NOT AVBL
VIROQUA        FAIR      38  31  76 SE15      30.31R WCI  29
WIS DELLS      PTCLDY    34  25  69 E10       30.35S WCI  26
$$

...ELSEWHERE IN WISCONSIN...


CITY           SKY/WX    TMP DP  RH WIND       PRES   REMARKS
MILWAUKEE      PTCLDY    35  28  75 NE10      30.40S WCI  27
MADISON        PTCLDY    34  25  69 E6        30.38R WCI  29
GREEN BAY      MOCLDY    33  28  81 E5        30.43S WCI  29
EAU CLAIRE     NOT AVBL
BLACK RVR FLS  FAIR      40  28  61 SE6G17    30.33R
MEDFORD        MOCLDY    34  28  77 SE12      30.34R WCI  25
WAUSAU         CLOUDY    34  26  72 SE9       30.37R WCI  27
WIS RAPIDS     MOCLDY    35  25  66 SE8       30.39R WCI  29
MARSHFIELD     MOCLDY    35  26  69 SE13      30.36R WCI  26
RICE LAKE      MOCLDY    39  25  56 SE12      30.28S WCI  32
$$

...NORTHEAST IOWA...


CITY           SKY/WX    TMP DP  RH WIND       PRES   REMARKS
WATERLOO       MOCLDY    45  35  68 SE18G26   30.22R
DUBUQUE        CLEAR     37  30  75 SE7       30.31S WCI  32
DECORAH        PTCLDY    43  34  70 SE14G25   30.25R
MASON CITY     MOCLDY    42  33  70 SE13      30.18S
CHARLES CITY   PTCLDY    45  32  61 SE16G23   30.22R
OELWEIN        PTCLDY   N/A N/A N/A SE16G25   30.25R
$$

...ELSEWHERE IN IOWA...


CITY           SKY/WX    TMP DP  RH WIND       PRES   REMARKS
DES MOINES     MOCLDY    51  34  52 SE9       30.17F
IOWA CITY      MOCLDY    44  37  76 E9        30.29R
FORT DODGE     MOCLDY    52  34  50 SE13G18   30.11F
MARSHALLTOWN   CLOUDY    49  32  52 SE16      30.18F
CEDAR RAPIDS   MOCLDY    42  36  79 E15       30.25S
$$

...NORTHERN ILLINOIS...


CITY           SKY/WX    TMP DP  RH WIND       PRES   REMARKS
CHICAGO-OHARE  CLEAR     38  27  64 NE7       30.36S WCI  33
DUPAGE         CLEAR     37  28  70 NE9       30.35R WCI  30
CHICAGO-MIDWAY PTCLDY    39  30  70 NE9       30.35F WCI  33
MOLINE         CLEAR     38  31  76 E9        30.32S WCI  31
ROCKFORD       PTCLDY    36  25  64 E5        30.37S WCI  32
STERLING       CLEAR     34  27  75 E7        30.33F WCI  28
PEORIA         CLEAR     41  28  60 E10       30.31F
$$

NOTE: "FAIR" INDICATES FEW OR NO CLOUDS BELOW 12,000 FEET WITH NO
SIGNIFICANT WEATHER AND/OR OBSTRUCTIONS TO VISIBILITY. WIND
SPEEDS ARE IN MILES-PER-HOUR.



USA.gov is the U.S. government's official web portal to all federal, state and local government web resources and services.